Flag for U.S.A. Weather past 2 weeks in San Luis Obispo, California, U.S.A.

Now
57 °F

Broken clouds.


Feels Like: 56 °F
Forecast: 42 / 57 °F
Wind: 7 mph from Southwest

Location: San Luis Obispo County-Mc Chesney Field

Current Time: Mar 2, 2015 at 3:54:55 PM

Latest Report: Mar 2, 2015 at 2:56 PM


Visibility: 10 mi

Pressure: 29.86 "Hg

Humidity: 64%

Dew point: 45 °F

Location of San Luis ObispoLocation

Historic Weather in San Luis Obispo — Graph

°F

San Luis Obispo temperature yesterday

Maximum temperature yesterday: 61 °F (at 1:56 PM)
Minimum temperature yesterday: 41 °F (at 11:56 PM)
Average temperature yesterday: 49 °F

Past Weeks' High & Low Weather Summary

 TemperatureHumidityPressure
High72 °F (Feb 26, 2:56 PM)100% (Feb 15, 7:56 PM)30.34 "Hg (Feb 15, 7:56 PM)
Low39 °F (Feb 24, 6:56 AM)27% (Feb 24, 1:56 PM)29.78 "Hg (Feb 27, 5:57 PM)
Average54 °F82%30.00 "Hg
* Reported Feb 15 2:56 PM — Mar 2 2:56 PM, San Luis Obispo, Weather by CustomWeather, © 2015

Note: Actual official high and low records may vary slightly from our data, if they occured in-between our weather recording intervals... More about our weather records

Advertising

San Luis Obispo weather history for previous 24 hours

 ConditionsComfort  
Time TempWeatherWind HumidityBarometerVisibility
2:56 PM
Mon, Mar 2
57 °FBroken clouds.7 mph64%29.86 "Hg10 mi
1:56 PM60 °FBroken clouds.8 mph60%29.86 "Hg10 mi
12:56 PM57 °FBroken clouds.8 mph69%29.88 "Hg10 mi
11:56 AM55 °FPartly sunny.No wind74%29.89 "Hg10 mi
10:56 AM55 °FMostly cloudy.9 mph74%29.90 "Hg10 mi
9:56 AM54 °FPartly sunny.6 mph80%29.90 "Hg10 mi
8:56 AM47 °FPartly sunny.No wind93%29.91 "Hg10 mi
7:56 AM42 °FMostly cloudy.No wind100%29.91 "Hg10 mi
6:56 AM39 °FScattered clouds.No wind96%29.90 "Hg10 mi
5:56 AM39 °FPassing clouds.3 mph96%29.89 "Hg10 mi
4:56 AM39 °FPassing clouds.3 mph100%29.89 "Hg10 mi
3:56 AM39 °FClear.No wind96%29.89 "Hg10 mi
2:56 AM40 °FClear.No wind97%29.90 "Hg10 mi
2:02 AM39 °FFog.No wind96%29.92 "Hg2 mi
1:56 AM40 °FPassing clouds.No wind97%29.93 "Hg8 mi
12:56 AM42 °FClear.3 mph96%29.93 "Hg10 mi
11:56 PM
Sun, Mar 1
41 °FFog.6 mph100%29.94 "Hg6 mi
11:03 PM42 °FFog.No wind96%29.96 "Hg1 mi
10:56 PM43 °FFog.No wind93%29.96 "Hg2 mi
9:56 PM43 °FClear.3 mph97%29.96 "Hg7 mi
8:56 PM45 °FClear.No wind97%29.96 "Hg10 mi
7:56 PM46 °FPassing clouds.No wind96%29.95 "Hg10 mi
6:56 PM47 °FPassing clouds.No wind97%29.94 "Hg10 mi
5:56 PM50 °FPartly sunny.No wind89%29.93 "Hg10 mi
4:56 PM51 °FMostly cloudy.5 mph86%29.93 "Hg10 mi
3:56 PM51 °FThundershowers. Mostly cloudy.5 mph89%29.92 "Hg10 mi
Weather by CustomWeather, © 2015

See weather overviewHow to use our weather pages